DIRECTV 15

Last updated on Mon Sep 07 2026 00:02:59 GMT+0000 (Coordinated Universal Time)

1 40663U 15026A 26249.31960625 -.00000117 00000+0 00000+0 0 9996 2 40663 0.0171 129.4701 0000628 41.7275 186.4144 1.00270444 41270
UTC large
Height (km)
Speed (km/s)
/
Latitude / Longitude
Inclination (degrees)
Orbital Period (minutes)
Azimuth
Elevation
Range (km)
Doppler Factor

Next 0 passes for location: London (51.5072 / 0.1276)

No passes found over London.
DIRECTV 15